Year,Month,Day,Hour,Minute,Value (Times are PST for windspeed in km/hr)
2014,10,07,00,00,0.30
2014,10,07,00,01,0.00
2014,10,07,00,02,0.00
2014,10,07,00,03,0.00
2014,10,07,00,04,0.00
2014,10,07,00,05,0.00
2014,10,07,00,06,0.00
2014,10,07,00,07,0.00
2014,10,07,00,08,3.50
2014,10,07,00,09,0.00
2014,10,07,00,10,0.00
2014,10,07,00,11,0.00
2014,10,07,00,12,0.10
2014,10,07,00,13,0.00
2014,10,07,00,14,0.00
2014,10,07,00,15,2.00
2014,10,07,00,16,0.00
2014,10,07,00,17,0.00
2014,10,07,00,18,0.00
2014,10,07,00,19,0.00
2014,10,07,00,20,0.00
2014,10,07,00,21,0.00
2014,10,07,00,22,0.00
2014,10,07,00,23,0.00
2014,10,07,00,24,0.00
2014,10,07,00,25,0.00
2014,10,07,00,26,0.00
2014,10,07,00,27,0.00
2014,10,07,00,28,0.00
2014,10,07,00,29,0.00
2014,10,07,00,30,0.00
2014,10,07,00,31,0.00
2014,10,07,00,32,0.00
2014,10,07,00,33,0.00
2014,10,07,00,34,0.40
2014,10,07,00,35,0.00
2014,10,07,00,36,6.80
2014,10,07,00,37,0.20
2014,10,07,00,38,0.70
2014,10,07,00,39,0.00
2014,10,07,00,40,0.00
2014,10,07,00,41,0.00
2014,10,07,00,42,0.00
2014,10,07,00,43,0.00
2014,10,07,00,44,0.40
2014,10,07,00,45,0.20
2014,10,07,00,46,2.70
2014,10,07,00,47,0.00
2014,10,07,00,48,0.10
2014,10,07,00,49,0.00
2014,10,07,00,50,0.10
2014,10,07,00,51,0.00
2014,10,07,00,52,0.00
2014,10,07,00,53,0.00
2014,10,07,00,54,1.60
2014,10,07,00,55,5.10
2014,10,07,00,56,14.70
2014,10,07,00,57,0.20
2014,10,07,00,58,0.40
2014,10,07,00,59,0.10
2014,10,07,01,00,0.00
2014,10,07,01,01,0.40
2014,10,07,01,02,0.00
2014,10,07,01,03,1.70
2014,10,07,01,04,1.50
2014,10,07,01,05,0.20
2014,10,07,01,06,3.60
2014,10,07,01,07,5.00
2014,10,07,01,08,12.00
2014,10,07,01,09,5.20
2014,10,07,01,10,8.00
2014,10,07,01,11,6.60
2014,10,07,01,12,9.40
2014,10,07,01,13,2.60
2014,10,07,01,14,6.40
2014,10,07,01,15,0.80
2014,10,07,01,16,1.50
2014,10,07,01,17,8.70
2014,10,07,01,18,1.90
2014,10,07,01,19,10.30
2014,10,07,01,20,8.70
2014,10,07,01,21,5.40
2014,10,07,01,22,4.30
2014,10,07,01,23,7.60
2014,10,07,01,24,6.20
2014,10,07,01,25,10.90
2014,10,07,01,26,6.40
2014,10,07,01,27,1.30
2014,10,07,01,28,3.30
2014,10,07,01,29,2.40
2014,10,07,01,30,1.10
2014,10,07,01,31,6.40
2014,10,07,01,32,4.30
2014,10,07,01,33,3.40
2014,10,07,01,34,3.00
2014,10,07,01,35,0.20
2014,10,07,01,36,0.00
2014,10,07,01,37,9.70
2014,10,07,01,38,0.10
2014,10,07,01,39,1.00
2014,10,07,01,40,0.10
2014,10,07,01,41,0.00
2014,10,07,01,42,0.40
2014,10,07,01,43,0.00
2014,10,07,01,44,0.00
2014,10,07,01,45,0.80
2014,10,07,01,46,0.00
2014,10,07,01,47,0.80
2014,10,07,01,48,0.00
2014,10,07,01,49,0.00
2014,10,07,01,50,0.40
2014,10,07,01,51,1.00
2014,10,07,01,52,20.10
2014,10,07,01,53,14.50
2014,10,07,01,54,2.00
2014,10,07,01,55,4.60
2014,10,07,01,56,0.60
2014,10,07,01,57,0.00
2014,10,07,01,58,0.00
2014,10,07,01,59,0.00
2014,10,07,02,00,0.20
2014,10,07,02,01,1.90
2014,10,07,02,02,5.60
2014,10,07,02,03,2.20
2014,10,07,02,04,0.30
2014,10,07,02,05,0.10
2014,10,07,02,06,1.10
2014,10,07,02,07,1.50
2014,10,07,02,08,6.40
2014,10,07,02,09,0.80
2014,10,07,02,10,2.60
2014,10,07,02,11,0.00
2014,10,07,02,12,0.00
2014,10,07,02,13,0.00
2014,10,07,02,14,0.00
2014,10,07,02,15,0.20
2014,10,07,02,16,0.10
2014,10,07,02,17,0.00
2014,10,07,02,18,0.50
2014,10,07,02,19,0.00
2014,10,07,02,20,0.10
2014,10,07,02,21,3.00
2014,10,07,02,22,2.20
2014,10,07,02,23,0.00
2014,10,07,02,24,1.70
2014,10,07,02,25,0.00
2014,10,07,02,26,3.00
2014,10,07,02,27,0.00
2014,10,07,02,28,1.70
2014,10,07,02,29,0.40
2014,10,07,02,30,0.00
2014,10,07,02,31,1.50
2014,10,07,02,32,0.30
2014,10,07,02,33,0.10
2014,10,07,02,34,2.60
2014,10,07,02,35,0.80
2014,10,07,02,36,0.30
2014,10,07,02,37,0.10
2014,10,07,02,38,0.00
2014,10,07,02,39,0.10
2014,10,07,02,40,0.10
2014,10,07,02,41,1.00
2014,10,07,02,42,0.00
2014,10,07,02,43,0.20
2014,10,07,02,44,0.80
2014,10,07,02,45,0.00
2014,10,07,02,46,3.80
2014,10,07,02,47,8.00
2014,10,07,02,48,2.50
2014,10,07,02,49,5.90
2014,10,07,02,50,3.00
2014,10,07,02,51,0.00
2014,10,07,02,52,5.10
2014,10,07,02,53,1.10
2014,10,07,02,54,0.00
2014,10,07,02,55,0.40
2014,10,07,02,56,1.40
2014,10,07,02,57,10.00
2014,10,07,02,58,14.20
2014,10,07,02,59,15.10
2014,10,07,03,00,16.40
2014,10,07,03,01,7.10
2014,10,07,03,02,2.90
2014,10,07,03,03,19.90
2014,10,07,03,04,12.60
2014,10,07,03,05,2.20
2014,10,07,03,06,17.30
2014,10,07,03,07,32.10
2014,10,07,03,08,20.00
2014,10,07,03,09,0.70
2014,10,07,03,10,11.90
2014,10,07,03,11,2.90
2014,10,07,03,12,0.20
2014,10,07,03,13,2.00
2014,10,07,03,14,8.40
2014,10,07,03,15,5.50
2014,10,07,03,16,0.80
2014,10,07,03,17,4.60
2014,10,07,03,18,16.30
2014,10,07,03,19,7.80
2014,10,07,03,20,7.20
2014,10,07,03,21,20.70
2014,10,07,03,22,18.70
2014,10,07,03,23,13.50
2014,10,07,03,24,15.70
2014,10,07,03,25,17.30
2014,10,07,03,26,16.20
2014,10,07,03,27,9.30
2014,10,07,03,28,0.50
2014,10,07,03,29,9.00
2014,10,07,03,30,18.00
2014,10,07,03,31,7.60
2014,10,07,03,32,8.80
2014,10,07,03,33,6.00
2014,10,07,03,34,6.00
2014,10,07,03,35,0.60
2014,10,07,03,36,0.80
2014,10,07,03,37,10.00
2014,10,07,03,38,15.20
2014,10,07,03,39,4.40
2014,10,07,03,40,4.30
2014,10,07,03,41,1.10
2014,10,07,03,42,10.20
2014,10,07,03,43,0.60
2014,10,07,03,44,0.90
2014,10,07,03,45,0.70
2014,10,07,03,46,5.70
2014,10,07,03,47,4.60
2014,10,07,03,48,0.00
2014,10,07,03,49,7.00
2014,10,07,03,50,3.30
2014,10,07,03,51,22.50
2014,10,07,03,52,9.60
2014,10,07,03,53,11.40
2014,10,07,03,54,16.40
2014,10,07,03,55,6.00
2014,10,07,03,56,7.60
2014,10,07,03,57,11.30
2014,10,07,03,58,11.70
2014,10,07,03,59,12.30
2014,10,07,04,00,14.40
2014,10,07,04,01,48.30
2014,10,07,04,02,20.20
2014,10,07,04,03,11.00
2014,10,07,04,04,15.80
2014,10,07,04,05,1.80
2014,10,07,04,06,14.40
2014,10,07,04,07,18.20
2014,10,07,04,08,14.90
2014,10,07,04,09,5.50
2014,10,07,04,10,11.40
2014,10,07,04,11,1.90
2014,10,07,04,12,0.00
2014,10,07,04,13,7.70
2014,10,07,04,14,0.20
2014,10,07,04,15,0.00
2014,10,07,04,16,0.80
2014,10,07,04,17,13.40
2014,10,07,04,18,16.70
2014,10,07,04,19,4.90
2014,10,07,04,20,4.10
2014,10,07,04,21,0.00
2014,10,07,04,22,10.70
2014,10,07,04,23,6.10
2014,10,07,04,24,0.50
2014,10,07,04,25,0.00
2014,10,07,04,26,4.00
2014,10,07,04,27,6.80
2014,10,07,04,28,0.60
2014,10,07,04,29,0.20
2014,10,07,04,30,5.50
2014,10,07,04,31,0.20
2014,10,07,04,32,5.90
2014,10,07,04,33,13.00
2014,10,07,04,34,14.10
2014,10,07,04,35,0.00
2014,10,07,04,36,1.40
2014,10,07,04,37,3.90
2014,10,07,04,38,14.00
2014,10,07,04,39,4.60
2014,10,07,04,40,11.40
2014,10,07,04,41,22.70
2014,10,07,04,42,1.20
2014,10,07,04,43,5.50
2014,10,07,04,44,14.60
2014,10,07,04,45,1.30
2014,10,07,04,46,7.70
2014,10,07,04,47,0.00
2014,10,07,04,48,3.20
2014,10,07,04,49,3.20
2014,10,07,04,50,1.90
2014,10,07,04,51,3.60
2014,10,07,04,52,18.30
2014,10,07,04,53,6.50
2014,10,07,04,54,3.70
2014,10,07,04,55,14.70
2014,10,07,04,56,4.00
2014,10,07,04,57,3.50
2014,10,07,04,58,2.90
2014,10,07,04,59,8.00
2014,10,07,05,00,0.90
2014,10,07,05,01,0.20
2014,10,07,05,02,0.10
2014,10,07,05,03,0.00
2014,10,07,05,04,0.10
2014,10,07,05,05,0.10
2014,10,07,05,06,0.00
2014,10,07,05,07,2.50
2014,10,07,05,08,4.90
2014,10,07,05,09,3.80
2014,10,07,05,10,0.10
2014,10,07,05,11,0.30
2014,10,07,05,12,0.80
2014,10,07,05,13,0.00
2014,10,07,05,14,0.40
2014,10,07,05,15,1.70
2014,10,07,05,16,0.00
2014,10,07,05,17,0.10
2014,10,07,05,18,0.00
2014,10,07,05,19,2.70
2014,10,07,05,20,5.40
2014,10,07,05,21,0.00
2014,10,07,05,22,8.60
2014,10,07,05,23,2.60
2014,10,07,05,24,5.50
2014,10,07,05,25,11.60
2014,10,07,05,26,1.40
2014,10,07,05,27,7.10
2014,10,07,05,28,0.00
2014,10,07,05,29,0.00
2014,10,07,05,30,0.20
2014,10,07,05,31,0.00
2014,10,07,05,32,0.00
2014,10,07,05,33,2.60
2014,10,07,05,34,1.60
2014,10,07,05,35,4.10
2014,10,07,05,36,0.10
2014,10,07,05,37,0.00
2014,10,07,05,38,1.40
2014,10,07,05,39,0.00
2014,10,07,05,40,1.40
2014,10,07,05,41,3.50
2014,10,07,05,42,0.20
2014,10,07,05,43,0.00
2014,10,07,05,44,0.00
2014,10,07,05,45,0.00
2014,10,07,05,46,8.80
2014,10,07,05,47,2.80
2014,10,07,05,48,0.40
2014,10,07,05,49,0.00
2014,10,07,05,50,9.40
2014,10,07,05,51,1.80
2014,10,07,05,52,0.40
2014,10,07,05,53,0.10
2014,10,07,05,54,0.50
2014,10,07,05,55,0.00
2014,10,07,05,56,2.70
2014,10,07,05,57,0.00
2014,10,07,05,58,0.00
2014,10,07,05,59,0.20
2014,10,07,06,00,0.70
2014,10,07,06,01,5.30
2014,10,07,06,02,2.70
2014,10,07,06,03,0.00
2014,10,07,06,04,0.30
2014,10,07,06,05,0.00
2014,10,07,06,06,0.00
2014,10,07,06,07,0.00
2014,10,07,06,08,0.00
2014,10,07,06,09,11.80
2014,10,07,06,10,0.00
2014,10,07,06,11,0.00
2014,10,07,06,12,0.00
2014,10,07,06,13,0.10
2014,10,07,06,14,0.00
2014,10,07,06,15,0.40
2014,10,07,06,16,0.00
2014,10,07,06,17,0.10
2014,10,07,06,18,0.00
2014,10,07,06,19,0.00
2014,10,07,06,20,0.00
2014,10,07,06,21,1.70
2014,10,07,06,22,0.10
2014,10,07,06,23,0.60
2014,10,07,06,24,8.10
2014,10,07,06,25,0.00
2014,10,07,06,26,0.00
2014,10,07,06,27,1.00
2014,10,07,06,28,0.00
2014,10,07,06,29,4.30
2014,10,07,06,30,0.00
2014,10,07,06,31,0.40
2014,10,07,06,32,16.30
2014,10,07,06,33,6.20
2014,10,07,06,34,4.40
2014,10,07,06,35,0.40
2014,10,07,06,36,9.30
2014,10,07,06,37,3.40
2014,10,07,06,38,0.00
2014,10,07,06,39,8.00
2014,10,07,06,40,1.50
2014,10,07,06,41,7.70
2014,10,07,06,42,5.70
2014,10,07,06,43,0.00
2014,10,07,06,44,20.10
2014,10,07,06,45,1.10
2014,10,07,06,46,4.40
2014,10,07,06,47,0.10
2014,10,07,06,48,10.50
2014,10,07,06,49,17.60
2014,10,07,06,50,17.00
2014,10,07,06,51,14.50
2014,10,07,06,52,23.00
2014,10,07,06,53,10.70
2014,10,07,06,54,15.00
2014,10,07,06,55,5.10
2014,10,07,06,56,3.50
2014,10,07,06,57,18.80
2014,10,07,06,58,1.00
2014,10,07,06,59,11.30
2014,10,07,07,00,0.50
2014,10,07,07,01,2.40
2014,10,07,07,02,22.00
2014,10,07,07,03,0.00
2014,10,07,07,04,4.70
2014,10,07,07,05,3.10
2014,10,07,07,06,14.10
2014,10,07,07,07,34.30
2014,10,07,07,08,10.90
2014,10,07,07,09,3.20
2014,10,07,07,10,7.80
2014,10,07,07,11,7.20
2014,10,07,07,12,7.10
2014,10,07,07,13,0.20
2014,10,07,07,14,0.00
2014,10,07,07,15,0.00
2014,10,07,07,16,7.90
2014,10,07,07,17,10.60
2014,10,07,07,18,6.80
2014,10,07,07,19,4.80
2014,10,07,07,20,18.90
2014,10,07,07,21,4.20
2014,10,07,07,22,1.30
2014,10,07,07,23,17.10
2014,10,07,07,24,16.60
2014,10,07,07,25,21.90
2014,10,07,07,26,21.70
2014,10,07,07,27,8.60
2014,10,07,07,28,2.70
2014,10,07,07,29,5.00
2014,10,07,07,30,2.70
2014,10,07,07,31,10.50
2014,10,07,07,32,7.10
2014,10,07,07,33,0.30
2014,10,07,07,34,0.70
2014,10,07,07,35,0.00
2014,10,07,07,36,0.00
2014,10,07,07,37,0.80
2014,10,07,07,38,0.10
2014,10,07,07,39,2.20
2014,10,07,07,40,2.30
2014,10,07,07,41,3.70
2014,10,07,07,42,4.70
2014,10,07,07,43,4.30
2014,10,07,07,44,1.80
2014,10,07,07,45,2.20
2014,10,07,07,46,8.80
2014,10,07,07,47,13.00
2014,10,07,07,48,23.70
2014,10,07,07,49,0.20
2014,10,07,07,50,3.30
2014,10,07,07,51,4.00
2014,10,07,07,52,6.20
2014,10,07,07,53,0.20
2014,10,07,07,54,11.40
2014,10,07,07,55,3.50
2014,10,07,07,56,1.50
2014,10,07,07,57,0.80
2014,10,07,07,58,2.90
2014,10,07,07,59,1.70
2014,10,07,08,00,1.50
2014,10,07,08,01,10.80
2014,10,07,08,02,11.10
2014,10,07,08,03,13.00
2014,10,07,08,04,10.50
2014,10,07,08,05,7.10
2014,10,07,08,06,20.70
2014,10,07,08,07,12.70
2014,10,07,08,08,19.70
2014,10,07,08,09,15.10
2014,10,07,08,10,17.90
2014,10,07,08,11,16.60
2014,10,07,08,12,17.60
2014,10,07,08,13,1.40
2014,10,07,08,14,2.10
2014,10,07,08,15,10.80
2014,10,07,08,16,8.60
2014,10,07,08,17,8.40
2014,10,07,08,18,10.80
2014,10,07,08,19,12.60
2014,10,07,08,20,13.90
2014,10,07,08,21,24.20
2014,10,07,08,22,21.60
2014,10,07,08,23,13.60
2014,10,07,08,24,15.30
2014,10,07,08,25,10.10
2014,10,07,08,26,16.40
2014,10,07,08,27,20.60
2014,10,07,08,28,13.40
2014,10,07,08,29,14.30
2014,10,07,08,30,17.60
2014,10,07,08,31,3.50
2014,10,07,08,32,16.20
2014,10,07,08,33,26.90
2014,10,07,08,34,0.00
2014,10,07,08,35,0.80
2014,10,07,08,36,6.60
2014,10,07,08,37,6.20
2014,10,07,08,38,15.30
2014,10,07,08,39,30.80
2014,10,07,08,40,15.90
2014,10,07,08,41,19.00
2014,10,07,08,42,29.20
2014,10,07,08,43,21.90
2014,10,07,08,44,28.80
2014,10,07,08,45,27.60
2014,10,07,08,46,25.20
2014,10,07,08,47,14.20
2014,10,07,08,48,21.30
2014,10,07,08,49,28.70
2014,10,07,08,50,14.20
2014,10,07,08,51,20.20
2014,10,07,08,52,11.80
2014,10,07,08,53,3.60
2014,10,07,08,54,18.50
2014,10,07,08,55,15.90
2014,10,07,08,56,6.20
2014,10,07,08,57,31.00
2014,10,07,08,58,27.00
2014,10,07,08,59,26.00
2014,10,07,09,00,28.90
2014,10,07,09,01,18.10
2014,10,07,09,02,15.00
2014,10,07,09,03,2.40
2014,10,07,09,04,21.60
2014,10,07,09,05,14.80
2014,10,07,09,06,20.20
2014,10,07,09,07,23.10
2014,10,07,09,08,23.80
2014,10,07,09,09,36.50
2014,10,07,09,10,23.80
2014,10,07,09,11,24.30
2014,10,07,09,12,21.80
2014,10,07,09,13,21.70
2014,10,07,09,14,19.20
2014,10,07,09,15,30.80
2014,10,07,09,16,14.80
2014,10,07,09,17,8.50
2014,10,07,09,18,7.20
2014,10,07,09,19,8.00
2014,10,07,09,20,10.60
2014,10,07,09,21,5.80
2014,10,07,09,22,14.70
2014,10,07,09,23,9.90
2014,10,07,09,24,0.30
2014,10,07,09,25,0.20
2014,10,07,09,26,0.60
2014,10,07,09,27,4.50
2014,10,07,09,28,20.00
2014,10,07,09,29,8.60
2014,10,07,09,30,2.30
2014,10,07,09,31,9.10
2014,10,07,09,32,22.90
2014,10,07,09,33,15.30
2014,10,07,09,34,12.50
2014,10,07,09,35,10.90
2014,10,07,09,36,10.20
2014,10,07,09,37,21.90
2014,10,07,09,38,11.90
2014,10,07,09,39,11.70
2014,10,07,09,40,12.30
2014,10,07,09,41,15.40
2014,10,07,09,42,12.50
2014,10,07,09,43,7.30
2014,10,07,09,44,19.90
2014,10,07,09,45,1.80
2014,10,07,09,46,23.70
2014,10,07,09,47,21.30
2014,10,07,09,48,14.80
2014,10,07,09,49,16.30
2014,10,07,09,50,15.80
2014,10,07,09,51,3.10
2014,10,07,09,52,21.50
2014,10,07,09,53,26.50
2014,10,07,09,54,24.10
2014,10,07,09,55,30.40
2014,10,07,09,56,21.10
2014,10,07,09,57,25.20
2014,10,07,09,58,21.90
2014,10,07,09,59,25.30
2014,10,07,10,00,17.90
2014,10,07,10,01,20.90
2014,10,07,10,02,2.20
2014,10,07,10,03,3.30
2014,10,07,10,04,0.60
2014,10,07,10,05,2.10
2014,10,07,10,06,0.00
2014,10,07,10,07,0.00
2014,10,07,10,08,1.00
2014,10,07,10,09,2.20
2014,10,07,10,10,3.40
2014,10,07,10,11,0.20
2014,10,07,10,12,7.50
2014,10,07,10,13,5.00
2014,10,07,10,14,1.80
2014,10,07,10,15,17.60
2014,10,07,10,16,2.10
2014,10,07,10,17,0.60
2014,10,07,10,18,0.50
2014,10,07,10,19,0.30
2014,10,07,10,20,2.40
2014,10,07,10,21,15.20
2014,10,07,10,22,13.50
2014,10,07,10,23,8.00
2014,10,07,10,24,23.80
2014,10,07,10,25,21.20
2014,10,07,10,26,13.30
2014,10,07,10,27,4.70
2014,10,07,10,28,14.80
2014,10,07,10,29,6.30
2014,10,07,10,30,19.00
2014,10,07,10,31,6.50
2014,10,07,10,32,0.10
2014,10,07,10,33,13.50
2014,10,07,10,34,20.00
2014,10,07,10,35,27.40
2014,10,07,10,36,17.90
2014,10,07,10,37,11.90
2014,10,07,10,38,22.00
2014,10,07,10,39,32.00
2014,10,07,10,40,18.00
2014,10,07,10,41,3.80
2014,10,07,10,42,4.30
2014,10,07,10,43,4.30
2014,10,07,10,44,18.00
2014,10,07,10,45,11.30
2014,10,07,10,46,9.70
2014,10,07,10,47,21.60
2014,10,07,10,48,7.20
2014,10,07,10,49,27.40
2014,10,07,10,50,23.10
2014,10,07,10,51,22.50
2014,10,07,10,52,19.20
2014,10,07,10,53,7.90
2014,10,07,10,54,8.70
2014,10,07,10,55,1.00
2014,10,07,10,56,6.30
2014,10,07,10,57,20.70
2014,10,07,10,58,23.80
2014,10,07,10,59,22.20
2014,10,07,11,00,22.30
2014,10,07,11,01,32.50
2014,10,07,11,02,25.20
2014,10,07,11,03,18.50
2014,10,07,11,04,8.90
2014,10,07,11,05,16.40
2014,10,07,11,06,15.30
2014,10,07,11,07,6.50
2014,10,07,11,08,3.00
2014,10,07,11,09,16.20
2014,10,07,11,10,16.70
2014,10,07,11,11,17.40
2014,10,07,11,12,21.30
2014,10,07,11,13,18.90
2014,10,07,11,14,6.60
2014,10,07,11,15,27.60
2014,10,07,11,16,18.30
2014,10,07,11,17,15.60
2014,10,07,11,18,32.50
2014,10,07,11,19,28.90
2014,10,07,11,20,29.20
2014,10,07,11,21,36.50
2014,10,07,11,22,24.00
2014,10,07,11,23,26.00
2014,10,07,11,24,34.00
2014,10,07,11,25,30.20
2014,10,07,11,26,34.80
2014,10,07,11,27,24.10
2014,10,07,11,28,20.10
2014,10,07,11,29,15.30
2014,10,07,11,30,26.00
2014,10,07,11,31,23.90
2014,10,07,11,32,30.80
2014,10,07,11,33,16.90
2014,10,07,11,34,18.50
2014,10,07,11,35,34.70
2014,10,07,11,36,34.70
2014,10,07,11,37,28.60
2014,10,07,11,38,23.00
2014,10,07,11,39,8.30
2014,10,07,11,40,13.90
2014,10,07,11,41,18.30
2014,10,07,11,42,19.10
2014,10,07,11,43,12.20
2014,10,07,11,44,0.20
2014,10,07,11,45,10.00
2014,10,07,11,46,2.20
2014,10,07,11,47,9.40
2014,10,07,11,48,6.80
2014,10,07,11,49,29.60
2014,10,07,11,50,2.30
2014,10,07,11,51,13.80
2014,10,07,11,52,17.00
2014,10,07,11,53,15.90
2014,10,07,11,54,19.60
2014,10,07,11,55,19.60
2014,10,07,11,56,16.00
2014,10,07,11,57,12.20
2014,10,07,11,58,17.20
2014,10,07,11,59,41.40
2014,10,07,12,00,21.80
2014,10,07,12,01,16.20
2014,10,07,12,02,4.10
2014,10,07,12,03,14.20
2014,10,07,12,04,24.10
2014,10,07,12,05,5.40
2014,10,07,12,06,17.80
2014,10,07,12,07,12.50
2014,10,07,12,08,25.30
2014,10,07,12,09,11.30
2014,10,07,12,10,0.30
2014,10,07,12,11,7.30
2014,10,07,12,12,2.80
2014,10,07,12,13,6.90
2014,10,07,12,14,6.30
2014,10,07,12,15,0.10
2014,10,07,12,16,1.90
2014,10,07,12,17,1.60
2014,10,07,12,18,1.60
2014,10,07,12,19,2.10
2014,10,07,12,20,2.20
2014,10,07,12,21,0.30
2014,10,07,12,22,2.90
2014,10,07,12,23,0.10
2014,10,07,12,24,2.00
2014,10,07,12,25,10.30
2014,10,07,12,26,0.20
2014,10,07,12,27,0.90
2014,10,07,12,28,2.70
2014,10,07,12,29,2.50
2014,10,07,12,30,7.30
2014,10,07,12,31,4.10
2014,10,07,12,32,2.20
2014,10,07,12,33,4.20
2014,10,07,12,34,8.00
2014,10,07,12,35,1.60
2014,10,07,12,36,1.10
2014,10,07,12,37,5.50
2014,10,07,12,38,3.90
2014,10,07,12,39,6.80
2014,10,07,12,40,8.60
2014,10,07,12,41,9.10
2014,10,07,12,42,10.10
2014,10,07,12,43,12.90
2014,10,07,12,44,3.00
2014,10,07,12,45,4.90
2014,10,07,12,46,10.50
2014,10,07,12,47,6.40
2014,10,07,12,48,13.30
2014,10,07,12,49,9.30
2014,10,07,12,50,16.30
2014,10,07,12,51,2.20
2014,10,07,12,52,0.10
2014,10,07,12,53,5.00
2014,10,07,12,54,5.30
2014,10,07,12,55,10.20
2014,10,07,12,56,6.10
2014,10,07,12,57,3.10
2014,10,07,12,58,10.00
2014,10,07,12,59,8.40
2014,10,07,13,00,11.30
2014,10,07,13,01,10.20
2014,10,07,13,02,7.90
2014,10,07,13,03,15.60
2014,10,07,13,04,7.20
2014,10,07,13,05,6.70
2014,10,07,13,06,12.80
2014,10,07,13,07,10.20
2014,10,07,13,08,8.60
2014,10,07,13,09,3.80
2014,10,07,13,10,11.90
2014,10,07,13,11,13.80
2014,10,07,13,12,18.70
2014,10,07,13,13,15.10
2014,10,07,13,14,19.50
2014,10,07,13,15,4.70
2014,10,07,13,16,2.90
2014,10,07,13,17,6.10
2014,10,07,13,18,7.20
2014,10,07,13,19,11.90
2014,10,07,13,20,5.10
2014,10,07,13,21,9.80
2014,10,07,13,22,1.10
2014,10,07,13,23,9.80
2014,10,07,13,24,26.10
2014,10,07,13,25,14.50
2014,10,07,13,26,7.00
2014,10,07,13,27,6.80
2014,10,07,13,28,19.80
2014,10,07,13,29,1.20
2014,10,07,13,30,2.80
2014,10,07,13,31,0.20
2014,10,07,13,32,6.60
2014,10,07,13,33,22.30
2014,10,07,13,34,19.10
2014,10,07,13,35,6.90
2014,10,07,13,36,10.50
2014,10,07,13,37,7.50
2014,10,07,13,38,12.30
2014,10,07,13,39,24.10
2014,10,07,13,40,13.90
2014,10,07,13,41,5.80
2014,10,07,13,42,13.00
2014,10,07,13,43,8.50
2014,10,07,13,44,8.70
2014,10,07,13,45,10.60
2014,10,07,13,46,3.10
2014,10,07,13,47,2.70
2014,10,07,13,48,6.70
2014,10,07,13,49,5.30
2014,10,07,13,50,1.50
2014,10,07,13,51,7.20
2014,10,07,13,52,22.00
2014,10,07,13,53,21.10
2014,10,07,13,54,15.20
2014,10,07,13,55,5.10
2014,10,07,13,56,2.80
2014,10,07,13,57,6.00
2014,10,07,13,58,15.30
2014,10,07,13,59,13.30
2014,10,07,14,00,6.80
2014,10,07,14,01,9.80
2014,10,07,14,02,16.70
2014,10,07,14,03,3.50
2014,10,07,14,04,7.50
2014,10,07,14,05,9.10
2014,10,07,14,06,5.70
2014,10,07,14,07,13.00
2014,10,07,14,08,8.70
2014,10,07,14,09,5.20
2014,10,07,14,10,19.40
2014,10,07,14,11,20.00
2014,10,07,14,12,8.50
2014,10,07,14,13,1.50
2014,10,07,14,14,1.50
2014,10,07,14,15,0.40
2014,10,07,14,16,19.70
2014,10,07,14,17,8.20
2014,10,07,14,18,13.20
2014,10,07,14,19,5.10
2014,10,07,14,20,3.80
2014,10,07,14,21,0.70
2014,10,07,14,22,0.50
2014,10,07,14,23,1.70
2014,10,07,14,24,16.30
2014,10,07,14,25,18.40
2014,10,07,14,26,23.80
2014,10,07,14,27,4.80
2014,10,07,14,28,9.30
2014,10,07,14,29,7.20
2014,10,07,14,30,7.30
2014,10,07,14,31,3.10
2014,10,07,14,32,10.50
2014,10,07,14,33,5.30
2014,10,07,14,34,4.00
2014,10,07,14,35,3.40
2014,10,07,14,36,4.50
2014,10,07,14,37,3.40
2014,10,07,14,38,2.30
2014,10,07,14,39,7.30
2014,10,07,14,40,2.80
2014,10,07,14,41,5.80
2014,10,07,14,42,3.40
2014,10,07,14,43,5.90
2014,10,07,14,44,2.20
2014,10,07,14,45,3.80
2014,10,07,14,46,0.40
2014,10,07,14,47,3.60
2014,10,07,14,48,1.20
2014,10,07,14,49,1.90
2014,10,07,14,50,0.80
2014,10,07,14,51,7.50
2014,10,07,14,52,3.80
2014,10,07,14,53,0.80
2014,10,07,14,54,0.30
2014,10,07,14,55,9.70
2014,10,07,14,56,5.10
2014,10,07,14,57,0.30
2014,10,07,14,58,1.00
2014,10,07,14,59,3.40
2014,10,07,15,00,10.50
2014,10,07,15,01,4.00
2014,10,07,15,02,4.00
2014,10,07,15,03,0.60
2014,10,07,15,04,3.80
2014,10,07,15,05,9.10
2014,10,07,15,06,0.20
2014,10,07,15,07,0.50
2014,10,07,15,08,2.10
2014,10,07,15,09,0.40
2014,10,07,15,10,7.70
2014,10,07,15,11,0.10
2014,10,07,15,12,2.50
2014,10,07,15,13,1.60
2014,10,07,15,14,0.10
2014,10,07,15,15,0.10
2014,10,07,15,16,2.80
2014,10,07,15,17,5.10
2014,10,07,15,18,1.70
2014,10,07,15,19,16.10
2014,10,07,15,20,14.60
2014,10,07,15,21,5.80
2014,10,07,15,22,1.20
2014,10,07,15,23,11.90
2014,10,07,15,24,2.50
2014,10,07,15,25,0.50
2014,10,07,15,26,4.60
2014,10,07,15,27,19.10
2014,10,07,15,28,9.70
2014,10,07,15,29,5.20
2014,10,07,15,30,2.10
2014,10,07,15,31,3.80
2014,10,07,15,32,0.00
2014,10,07,15,33,5.60
2014,10,07,15,34,3.00
2014,10,07,15,35,8.00
2014,10,07,15,36,16.90
2014,10,07,15,37,7.20
2014,10,07,15,38,2.20
2014,10,07,15,39,15.30
2014,10,07,15,40,24.50
2014,10,07,15,41,4.20
2014,10,07,15,42,15.50
2014,10,07,15,43,3.90
2014,10,07,15,44,4.70
2014,10,07,15,45,10.10
2014,10,07,15,46,2.80
2014,10,07,15,47,3.20
2014,10,07,15,48,3.60
2014,10,07,15,49,9.70
2014,10,07,15,50,15.70
2014,10,07,15,51,18.20
2014,10,07,15,52,3.70
2014,10,07,15,53,5.40
2014,10,07,15,54,9.10
2014,10,07,15,55,1.10
2014,10,07,15,56,1.10
2014,10,07,15,57,9.00
2014,10,07,15,58,6.80
2014,10,07,15,59,0.80
2014,10,07,16,00,3.30
2014,10,07,16,01,6.70
2014,10,07,16,02,1.30
2014,10,07,16,03,13.90
2014,10,07,16,04,9.40
2014,10,07,16,05,3.20
2014,10,07,16,06,12.50
2014,10,07,16,07,0.30
2014,10,07,16,08,7.80
2014,10,07,16,09,4.40
2014,10,07,16,10,6.40
2014,10,07,16,11,2.10
2014,10,07,16,12,5.60
2014,10,07,16,13,1.40
2014,10,07,16,14,3.90
2014,10,07,16,15,3.10
2014,10,07,16,16,2.30
2014,10,07,16,17,6.00
2014,10,07,16,18,4.50
2014,10,07,16,19,3.20
2014,10,07,16,20,9.90
2014,10,07,16,21,2.30
2014,10,07,16,22,13.00
2014,10,07,16,23,1.30
2014,10,07,16,24,6.80
2014,10,07,16,25,1.60
2014,10,07,16,26,0.20
2014,10,07,16,27,7.80
2014,10,07,16,28,0.20
2014,10,07,16,29,0.10
2014,10,07,16,30,10.10
2014,10,07,16,31,12.10
2014,10,07,16,32,12.00
2014,10,07,16,33,1.80
2014,10,07,16,34,2.10
2014,10,07,16,35,14.20
2014,10,07,16,36,0.70
2014,10,07,16,37,1.90
2014,10,07,16,38,17.50
2014,10,07,16,39,3.00
2014,10,07,16,40,1.90
2014,10,07,16,41,4.00
2014,10,07,16,42,0.60
2014,10,07,16,43,0.40
2014,10,07,16,44,7.50
2014,10,07,16,45,5.40
2014,10,07,16,46,1.40
2014,10,07,16,47,0.40
2014,10,07,16,48,2.60
2014,10,07,16,49,0.00
2014,10,07,16,50,1.50
2014,10,07,16,51,3.60
2014,10,07,16,52,5.70
2014,10,07,16,53,1.40
2014,10,07,16,54,0.00
2014,10,07,16,55,6.10
2014,10,07,16,56,9.40
2014,10,07,16,57,1.40
2014,10,07,16,58,0.00
2014,10,07,16,59,0.10
2014,10,07,17,00,3.10
2014,10,07,17,01,1.60
2014,10,07,17,02,0.60
2014,10,07,17,03,1.00
2014,10,07,17,04,0.60
2014,10,07,17,05,0.20
2014,10,07,17,06,0.10
2014,10,07,17,07,0.20
2014,10,07,17,08,0.10
2014,10,07,17,09,0.10
2014,10,07,17,10,0.00
2014,10,07,17,11,5.40
2014,10,07,17,12,9.70
2014,10,07,17,13,10.30
2014,10,07,17,14,5.40
2014,10,07,17,15,1.80
2014,10,07,17,16,0.40
2014,10,07,17,17,0.00
2014,10,07,17,18,9.00
2014,10,07,17,19,16.70
2014,10,07,17,20,6.80
2014,10,07,17,21,8.90
2014,10,07,17,22,7.50
2014,10,07,17,23,1.40
2014,10,07,17,24,0.60
2014,10,07,17,25,0.30
2014,10,07,17,26,0.50
2014,10,07,17,27,0.00
2014,10,07,17,28,0.20
2014,10,07,17,29,0.10
2014,10,07,17,30,0.10
2014,10,07,17,31,0.00
2014,10,07,17,32,0.10
2014,10,07,17,33,13.30
2014,10,07,17,34,0.00
2014,10,07,17,35,0.20
2014,10,07,17,36,9.60
2014,10,07,17,37,2.20
2014,10,07,17,38,0.20
2014,10,07,17,39,2.80
2014,10,07,17,40,1.90
2014,10,07,17,41,4.40
2014,10,07,17,42,0.00
2014,10,07,17,43,0.00
2014,10,07,17,44,0.20
2014,10,07,17,45,3.70
2014,10,07,17,46,0.00
2014,10,07,17,47,0.40
2014,10,07,17,48,0.10
2014,10,07,17,49,0.10
2014,10,07,17,50,0.10
2014,10,07,17,51,0.00